Location: Unspecified
(38.7273°N, 77.0677°W)
Time: 08:45:36
(UTC-04:00)

JUGNU - Visible Passes

Search period start: 20 September 2021 00:00
Search period end: 30 September 2021 00:00
Orbit: 836 x 864 km, 20.0° (Epoch: 19 September)

Date Brightness Start Highest point End Pass type
(mag) Time Alt. Az. Time Alt. Az. Time Alt. Az.
23 Sep ? 06:16:34 10° SSW 06:18:12 11° S 06:19:49 10° SSE visible
24 Sep ? 06:01:11 10° SSW 06:02:52 11° S 06:04:33 10° SSE visible
25 Sep ? 05:45:50 10° SSW 05:47:32 11° S 05:49:15 10° SSE visible
26 Sep ? 05:30:32 10° SSW 05:32:13 11° S 05:33:53 10° SSE visible
27 Sep ? 05:16:15 11° S 05:16:54 11° S 05:18:29 10° SSE visible
28 Sep ? 05:02:05 11° S 05:02:05 11° S 05:03:02 10° S visible
